{"data":{"norad_id":69076,"intl_designator":"2026-104D","name":"QIANFAN-130","alt_names":[],"object_type":"PAYLOAD","status":"ACTIVE","operator":null,"country":"PRC","launch_date":"2026-05-12","launch_site_code":"TAISC","launch_vehicle":null,"mission":null,"orbit_class":"UNKNOWN","rcs_meters":null,"size_class":null,"mass_kg":null,"dimensions":null,"purposes":[],"wikipedia_slug":null,"has_3d_model":false,"image_url":null,"decayed_at":null,"tle_current":{"epoch":"2026-05-25T04:47:26.469024Z","epoch_age_seconds":57552,"freshness":"FRESH","line1":"1 69076U 26104D   26145.19961191  .00000081  00000+0  31915-4 0  9997","line2":"2 69076  88.9868 344.2488 0003478 148.8814 211.2582 14.18732423  1823","mean_motion":14.18732423,"eccentricity":0.0003478,"inclination_deg":88.9868,"raan_deg":344.2488,"arg_perigee_deg":148.8814,"mean_anomaly_deg":211.2582,"bstar":3.1915e-5,"rev_number":182,"period_min":101.49905483622,"perigee_km":827.13596163592,"apogee_km":832.1496932839,"semimajor_km":7207.7798274599,"source":"CELESTRAK","updated_at":"2026-05-25T13:38:09.049535Z"}}}